Tracking 26922 objects as of 30-Jan-2023
HD Live streaming from Space Station
objects crossing your sky now

SL-12 R/B(2)

Track SL-12 R/B(2) now!


NORAD ID: 28119
Int'l Code: 2003-053E
Perigee: 34,929.4 km
Apogee: 36,795.5 km
Inclination: 12.7 °
Period: 1,439.6 minutes
Semi major axis: 42233 km
RCS: 1.9952 m2 (large)
Launch date: November 24, 2003
Source: Commonwealth of Independent States (former USSR) (CIS)
Launch site: TYURATAM MISSILE AND SPACE COMPLEX (TTMTR)

Note: This is a ROCKET BODY
Your satellite tracking list
Your tracking list is empty




NASA's NSSDC Master Catalog

Two Line Element Set (TLE):
1 28119U 03053E   23028.51577316 -.00000171  00000-0  00000-0 0  9992
2 28119  12.6593  22.0356 0220922 272.8601  95.6767  1.00027172 72368
Source of the keplerian elements: AFSPC